Weather History for Oscoda, MI

Change the Weather History Date:

Friday, September 21, 2012

  Actual Average Record
Temperature  
Mean Temperature 54 °F -  
Max Temperature 64 °F 66 °F 87 °F (2010)
Min Temperature 44 °F 46 °F 39 °F (2003)
Degree Days  
Heating Degree Days 11    
Growing Degree Days 4 (Base 50)    
Moisture  
Dew Point 45 °F    
Average Humidity 75    
Maximum Humidity 93    
Minimum Humidity 42    
Precipitation  
Precipitation 0.00 in - - ()
Sea Level Pressure  
Sea Level Pressure 29.83 in    
Wind  
Wind Speed 8 mph (SW)    
Max Wind Speed 23 mph    
Max Gust Speed 32 mph    
Visibility 10 miles    
Events Rain    
Averages and records for this station are not official NWS values.
T = Trace of Precipitation, MM = Missing Value Source: NWS Daily Summary

Daily Weather History Graph

Daily Weather History Graph

Search for Another Location

Airport:

Trip Planner

Search our weather history database for the weather conditions in past years. The results will help you decide how hot, cold, wet, or windy it might be!

Date:

Astronomy

Sep. 21, 2012 Rise Set
Actual Time 7:20 AM EDT 7:31 PM EDT
Civil Twilight 6:51 AM EDT 8:00 PM EDT
Nautical Twilight 6:16 AM EDT 8:35 PM EDT
Astronomical Twilight 5:41 AM EDT 9:09 PM EDT
Moon 1:54 PM EDT (9/21) 11:17 PM EDT (9/21)
Length of Visible Light 13h 09m
Length of Day
12h 11m
Waxing Crescent, 37% of the Moon is Illuminated
Sep 21
Waxing Crescent
Sep 22
First Quarter
Sep 29
Full
Oct 8
Last Quarter
Oct 15
New

Hourly Weather History & Observations

Time (EDT) Temp. Windchill Dew Point Humidity Pressure Visibility Wind Dir Wind Speed Gust Speed Precip Events Conditions
12:13 AM 49.6 °F - 43.9 °F 81% 29.83 in 10.0 mi WSW 5.8 mph - N/A   Clear
12:33 AM 49.1 °F - 43.7 °F 82% 29.84 in 10.0 mi WSW 5.8 mph - N/A   Clear
12:54 AM 50.7 °F - 43.9 °F 77% 29.85 in 10.0 mi West 12.7 mph 17.3 mph N/A   Scattered Clouds
1:13 AM 50.5 °F - 43.7 °F 77% 29.85 in 10.0 mi West 6.9 mph - N/A   Scattered Clouds
1:33 AM 48.4 °F - 42.8 °F 81% 29.85 in 10.0 mi West 4.6 mph - N/A   Clear
1:54 AM 48.2 °F - 42.8 °F 82% 29.85 in 10.0 mi WSW 3.5 mph - N/A   Clear
2:13 AM 45.7 °F 43.4 °F 41.7 °F 86% 29.85 in 10.0 mi SSW 4.6 mph - N/A   Scattered Clouds
2:33 AM 48.6 °F - 43.7 °F 83% 29.85 in 10.0 mi SSW 6.9 mph - N/A   Scattered Clouds
2:53 AM 47.3 °F - 43.2 °F 86% 29.85 in 10.0 mi SSW 6.9 mph - N/A   Clear
3:13 AM 47.5 °F - 43.3 °F 86% 29.85 in 10.0 mi SW 8.1 mph - N/A   Clear
3:33 AM 46.4 °F 42.9 °F 42.8 °F 87% 29.85 in 10.0 mi SW 6.9 mph - N/A   Clear
3:53 AM 46.9 °F - 43.0 °F 86% 29.85 in 10.0 mi SW 6.9 mph - N/A   Clear
4:13 AM 47.1 °F - 43.2 °F 86% 29.84 in 10.0 mi SSW 5.8 mph - N/A   Clear
4:33 AM 46.8 °F - 43.0 °F 87% 29.85 in 10.0 mi WSW 6.9 mph - N/A   Clear
4:53 AM 46.0 °F 41.9 °F 43.0 °F 89% 29.85 in 10.0 mi WSW 8.1 mph - N/A   Clear
5:13 AM 45.7 °F 42.0 °F 42.8 °F 90% 29.85 in 10.0 mi West 6.9 mph - N/A   Clear
5:33 AM 46.4 °F 42.4 °F 43.0 °F 88% 29.86 in 10.0 mi SW 8.1 mph - N/A   Clear
5:53 AM 45.9 °F 42.3 °F 42.8 °F 89% 29.86 in 10.0 mi SW 6.9 mph - N/A   Clear
6:13 AM 45.0 °F 40.1 °F 42.4 °F 91% 29.86 in 10.0 mi WSW 9.2 mph - N/A   Clear
6:33 AM 45.1 °F 40.8 °F 42.8 °F 91% 29.86 in 10.0 mi SW 8.1 mph - N/A   Clear
6:53 AM 45.0 °F 41.2 °F 42.8 °F 92% 29.86 in 10.0 mi SW 6.9 mph - N/A   Clear
7:13 AM 45.3 °F 41.6 °F 42.8 °F 91% 29.86 in 10.0 mi SW 6.9 mph - N/A   Clear
7:33 AM 44.8 °F 41.6 °F 42.8 °F 93% 29.87 in 10.0 mi SW 5.8 mph - N/A   Clear
7:53 AM 45.3 °F 43.0 °F 42.6 °F 90% 29.87 in 10.0 mi SW 4.6 mph - N/A   Clear
8:13 AM 46.2 °F 44.1 °F 43.2 °F 89% 29.88 in 10.0 mi SSW 4.6 mph - N/A   Clear
8:33 AM 47.1 °F - 43.7 °F 88% 29.88 in 10.0 mi SSW 4.6 mph - N/A   Clear
8:53 AM 47.7 °F - 43.7 °F 86% 29.88 in 10.0 mi South 5.8 mph - N/A   Clear
9:13 AM 47.3 °F - 43.2 °F 86% 29.88 in 10.0 mi SSW 6.9 mph - N/A   Clear
9:33 AM 47.3 °F - 43.7 °F 87% 29.88 in 10.0 mi SSW 5.8 mph - N/A   Clear
9:53 AM 48.9 °F - 45.0 °F 86% 29.88 in 10.0 mi SSW 5.8 mph - N/A   Clear
10:13 AM 50.0 °F - 45.1 °F 83% 29.88 in 10.0 mi SSW 5.8 mph - N/A   Clear
10:33 AM 53.1 °F - 46.0 °F 77% 29.88 in 10.0 mi SSW 5.8 mph - N/A   Clear
10:53 AM 55.2 °F - 45.7 °F 70% 29.88 in 10.0 mi SW 6.9 mph - N/A   Clear
11:13 AM 57.6 °F - 45.7 °F 65% 29.87 in 10.0 mi SSW 9.2 mph - N/A   Clear
11:33 AM 59.0 °F - 43.0 °F 55% 29.86 in 10.0 mi SSW 10.4 mph - N/A   Clear
11:53 AM 59.9 °F - 40.5 °F 49% 29.86 in 10.0 mi SSW 8.1 mph - N/A   Clear
12:13 PM 62.1 °F - 38.8 °F 42% 29.86 in 10.0 mi SSW 13.8 mph - N/A   Clear
12:33 PM 60.8 °F - 41.2 °F 48% 29.85 in 10.0 mi South 11.5 mph - N/A   Mostly Cloudy
12:53 PM 61.0 °F - 42.8 °F 51% 29.85 in 10.0 mi South 10.4 mph 18.4 mph N/A   Overcast
1:13 PM 63.1 °F - 43.2 °F 48% 29.84 in 10.0 mi SSW 10.4 mph - N/A   Mostly Cloudy
1:33 PM 64.8 °F - 42.8 °F 45% 29.83 in 10.0 mi South 16.1 mph 21.9 mph N/A   Mostly Cloudy
1:53 PM 64.8 °F - 41.9 °F 43% 29.82 in 10.0 mi South 15.0 mph 21.9 mph N/A   Mostly Cloudy
2:13 PM 64.8 °F - 43.3 °F 46% 29.82 in 10.0 mi South 13.8 mph 21.9 mph N/A   Mostly Cloudy
2:33 PM 61.9 °F - 43.9 °F 52% 29.82 in 10.0 mi South 12.7 mph 17.3 mph N/A   Mostly Cloudy
2:53 PM 62.1 °F - 43.7 °F 51% 29.81 in 10.0 mi South 12.7 mph 17.3 mph N/A   Overcast
3:13 PM 61.9 °F - 43.3 °F 51% 29.80 in 10.0 mi South 10.4 mph 16.1 mph N/A   Overcast
3:33 PM 62.8 °F - 43.9 °F 50% 29.80 in 10.0 mi SW 9.2 mph - N/A   Overcast
3:53 PM 62.6 °F - 43.2 °F 49% 29.80 in 10.0 mi SSW 8.1 mph - N/A   Overcast
4:13 PM 61.9 °F - 43.0 °F 50% 29.79 in 10.0 mi SSW 8.1 mph - N/A   Overcast
4:33 PM 62.1 °F - 44.1 °F 52% 29.78 in 10.0 mi SSW 5.8 mph - N/A   Overcast
4:53 PM 62.6 °F - 42.6 °F 48% 29.78 in 10.0 mi SW 11.5 mph 16.1 mph N/A   Overcast
5:13 PM 61.7 °F - 41.4 °F 47% 29.79 in 10.0 mi SW 23.0 mph 28.8 mph N/A   Overcast
5:33 PM 57.2 °F - 46.0 °F 66% 29.80 in 10.0 mi WSW 18.4 mph 32.2 mph N/A   Drizzle
5:53 PM 56.1 °F - 47.1 °F 72% 29.79 in 10.0 mi West 12.7 mph 19.6 mph N/A   Light Drizzle
6:13 PM 55.8 °F - 46.8 °F 72% 29.78 in 10.0 mi West 10.4 mph 20.7 mph N/A Rain Light Rain
6:33 PM 55.4 °F - 46.9 °F 73% 29.78 in 10.0 mi West 6.9 mph - N/A   Overcast
6:53 PM 55.0 °F - 46.8 °F 74% 29.78 in 10.0 mi West 5.8 mph - N/A   Overcast
7:13 PM 54.7 °F - 47.5 °F 77% 29.78 in 10.0 mi SW 4.6 mph - N/A Rain Light Rain
7:33 PM 53.8 °F - 48.0 °F 81% 29.78 in 10.0 mi SW 4.6 mph - N/A   Drizzle
7:53 PM 54.1 °F - 47.7 °F 79% 29.78 in 10.0 mi South 4.6 mph - N/A   Overcast
8:13 PM 54.0 °F - 48.2 °F 81% 29.79 in 10.0 mi SSW 6.9 mph - N/A Rain Rain
8:33 PM 53.6 °F - 48.7 °F 84% 29.79 in 10.0 mi SW 5.8 mph - N/A Rain Light Rain
8:53 PM 52.9 °F - 49.1 °F 87% 29.79 in 10.0 mi SW 4.6 mph - N/A Rain Light Rain
9:13 PM 52.7 °F - 49.5 °F 89% 29.79 in 10.0 mi SW 3.5 mph - N/A Rain Rain
9:33 PM 52.9 °F - 49.3 °F 88% 29.81 in 10.0 mi SSW 6.9 mph - N/A Rain Light Rain
9:53 PM 52.7 °F - 49.1 °F 88% 29.79 in 10.0 mi SSW 3.5 mph - N/A   Overcast
10:13 PM 52.3 °F - 49.1 °F 89% 29.78 in 10.0 mi SSW 5.8 mph - N/A   Overcast
10:33 PM 52.9 °F - 48.7 °F 86% 29.77 in 10.0 mi SW 6.9 mph - N/A   Overcast
10:53 PM 53.1 °F - 48.2 °F 84% 29.77 in 10.0 mi SSW 9.2 mph - N/A   Overcast
11:13 PM 52.9 °F - 48.6 °F 85% 29.77 in 10.0 mi SW 6.9 mph - N/A   Overcast
11:33 PM 52.7 °F - 49.1 °F 88% 29.76 in 10.0 mi SW 5.8 mph - N/A   Overcast
11:53 PM 52.7 °F - 49.1 °F 88% 29.75 in 10.0 mi SW 8.1 mph - N/A   Overcast